Content
SEND FEEDBACK

Daily
Averages
Monthly
Summary
United States of America

MALDEN, MISSOURI


Home > North America > United States > Missouri
Elevation: 295 feet     Latitude: 36 36N     Longitude: 089 59W

WEATHER
 
SELECT A DAY
Number of Records: 211,925;   Date Range: 1/1/95 - 11/26/14
 
SHARE

PRINT THIS DATA

[ ← Previous Day ]
WEATHER ALMANAC - DECEMBER 31, 2013
[ Next Day → ]
[ °C ]   °F
Weather ElementAverageHighLow
Temperature31.9 °F42.1 °F (2:53 pm)21.9 °F (5:53 am)
Dewpoint21 °F26.1 °F (9:53 pm)15.1 °F (3:53 am)
Humidity65.1 %79 % (11:53 pm)49 % (2:53 pm)
Barometer30.37 in30.46 in (9:53 am)30.29 in (11:53 pm)
Wind Speed5.1 mph11.5 mph (2:53 pm)
Weather ElementAverage
Visibility10 mi
Wind DirectionSSE (150.9 °)

Weather ElementTotal
Precipitation---
Heating Degree Days33 (Base 65)
Averaged from 23 records on December 31, 2013
WEATHER CONDITIONS BREAKOUT
WIND DIRECTION BREAKOUT
WEATHER BY HOUR - DECEMBER 31, 2013
[ °C ]   °F
Local TimeTemperatureDewpointHumidityBarometerVisibilityWind DirectionWind SpeedGust SpeedPrecipitationEventsConditions
1:53 AM24.1 °F16.0 °F71 %30.36 in10.0 miWSW (240°)4.6 mphClear
2:53 AM24.1 °F16.0 °F71 %30.37 in10.0 miSW (230°)3.5 mphClear
3:53 AM24.1 °F15.1 °F69 %30.37 in10.0 miWest (270°)3.5 mphClear
4:53 AM24.1 °F15.1 °F69 %30.37 in10.0 miCalmClear
5:53 AM21.9 °F15.1 °F75 %30.40 in10.0 miSSW (200°)4.6 mphClear
6:53 AM21.9 °F15.1 °F75 %30.41 in10.0 miCalmClear
7:53 AM23.0 °F16.0 °F74 %30.43 in10.0 miSSW (200°)4.6 mphClear
8:53 AM28.0 °F19.9 °F72 %30.44 in10.0 miSSW (200°)3.5 mphClear
9:53 AM33.1 °F19.0 °F56 %30.46 in10.0 miCalmClear
10:53 AM35.1 °F19.0 °F52 %30.46 in10.0 miENE (60°)4.6 mphClear
11:53 AM37.9 °F21.0 °F51 %30.42 in10.0 miVariable3.5 mphClear
12:53 PM39.0 °F21.9 °F50 %30.39 in10.0 miSSE (160°)5.8 mphClear
1:53 PM39.9 °F24.1 °F53 %30.36 in10.0 miSSE (160°)8.1 mphClear
2:53 PM42.1 °F24.1 °F49 %30.34 in10.0 miSSE (150°)11.5 mphClear
3:53 PM41.0 °F25.0 °F53 %30.34 in10.0 miSSE (160°)11.5 mphClear
4:53 PM39.0 °F25.0 °F57 %30.33 in10.0 miSouth (170°)8.1 mphClear
5:53 PM36.0 °F25.0 °F64 %30.33 in10.0 miSouth (170°)8.1 mphClear
6:53 PM34.0 °F25.0 °F70 %30.34 in10.0 miSouth (170°)4.6 mphClear
7:53 PM33.1 °F24.1 °F70 %30.35 in10.0 miSouth (170°)5.8 mphClear
8:53 PM32.0 °F24.1 °F73 %30.33 in10.0 miSouth (170°)5.8 mphClear
9:53 PM35.1 °F26.1 °F70 %30.32 in10.0 miSouth (190°)5.8 mphClear
10:53 PM33.1 °F26.1 °F75 %30.30 in10.0 miSSW (200°)4.6 mphClear
11:53 PM32.0 °F26.1 °F79 %30.29 in10.0 miSSW (200°)5.8 mphClear
Hourly data recorded from KPOF, located miles away from Malden, Missouri







STORIES FROM OUR PARTNERS